This is the latest recevied weather packets stored in our database for station/object DC7RY. If no packets are shown the sender has not sent any weather packets the latest 10 day(s).
| Time | Temp. | Humidity | Pressure | Rain* | Wind** | Luminosity | Snow |
|---|---|---|---|---|---|---|---|
| 1777808419 | 23.89° C | 36% | 1009.1 hPa | 0 mm | - | 161 W/m² | - |
| 1777807827 | 23.89° C | 36% | 1009.3 hPa | 0 mm | - | 168 W/m² | - |
| 1777807219 | 24.44° C | 37% | 1009.5 hPa | 0 mm | - | 180 W/m² | - |
| 1777806627 | 23.89° C | 35% | 1009.6 hPa | 0 mm | - | 210 W/m² | - |
| 1777806019 | 23.89° C | 38% | 1009.6 hPa | 0 mm | - | 325 W/m² | - |
| 1777805426 | 23.89° C | 37% | 1009.9 hPa | 0 mm | - | 305 W/m² | - |
| 1777804818 | 23.33° C | 37% | 1009.8 hPa | 0 mm | - | 351 W/m² | - |
| 1777804226 | 22.78° C | 37% | 1010 hPa | 0 mm | - | 283 W/m² | - |
| 1777803618 | 21.67° C | 38% | 1010.1 hPa | 0 mm | - | 320 W/m² | - |
| 1777803026 | 21.67° C | 41% | 1010.3 hPa | 0 mm | - | 270 W/m² | - |
| 1777802418 | 21.11° C | 40% | 1010.5 hPa | 0 mm | - | 208 W/m² | - |
| 1777801826 | 21.11° C | 41% | 1010.6 hPa | 0 mm | - | 142 W/m² | - |
| 1777801362 | 21.11° C | 43% | 1010.7 hPa | 0 mm | - | 161 W/m² | - |
| 1777800629 | 21.11° C | 43% | 1010.7 hPa | 0 mm | - | 157 W/m² | - |
| 1777800020 | 21.11° C | 42% | 1010.8 hPa | 0 mm | - | 154 W/m² | - |
| 1777799428 | 20.56° C | 41% | 1010.7 hPa | 0 mm | - | 159 W/m² | - |
| 1777798820 | 20° C | 41% | 1010.8 hPa | 0 mm | - | 166 W/m² | - |
| 1777798228 | 20° C | 43% | 1010.8 hPa | 0 mm | - | 141 W/m² | - |
| 1777797620 | 19.44° C | 43% | 1010.7 hPa | 0 mm | - | 132 W/m² | - |
| 1777797028 | 19.44° C | 42% | 1011.1 hPa | 0 mm | - | 123 W/m² | - |
| 1777796420 | 18.89° C | 43% | 1011.1 hPa | 0 mm | - | 120 W/m² | - |
| 1777795828 | 18.33° C | 47% | 1011.3 hPa | 0 mm | - | 112 W/m² | - |
| 1777795220 | 18.33° C | 49% | 1011 hPa | 0 mm | - | 100 W/m² | - |
| 1777794628 | 18.33° C | 50% | 1011 hPa | 0 mm | - | 90 W/m² | - |
| 1777794019 | 18.89° C | 50% | 1011 hPa | 0 mm | - | 85 W/m² | - |
* Rain latest hour (hover to see other rain measurements)
** Current wind speed in m/s (hover to see current wind gust speed)